TimeMST,TemperatureF,Dew PointF,Humidity,Sea Level PressureIn,VisibilityMPH,Wind Direction,Wind SpeedMPH,Gust SpeedMPH,PrecipitationIn,Events,Conditions,WindDirDegrees,DateUTC
12:15 AM,-13.0,-14.8,92,30.35,10.0,NNE,5.8,-,N/A,,Clear,20,2013-01-04 07:15:00
12:35 AM,-14.8,-16.6,92,30.34,10.0,North,9.2,-,N/A,,Clear,10,2013-01-04 07:35:00
12:55 AM,-13.0,-14.8,92,30.34,10.0,North,9.2,-,N/A,,Clear,10,2013-01-04 07:55:00
1:15 AM,-14.8,-16.6,92,30.34,10.0,North,8.1,-,N/A,,Clear,10,2013-01-04 08:15:00
1:35 AM,-14.8,-18.4,84,30.34,10.0,North,9.2,-,N/A,,Clear,10,2013-01-04 08:35:00
1:55 AM,-14.8,-16.6,92,30.34,10.0,NNE,6.9,-,N/A,,Clear,20,2013-01-04 08:55:00
2:35 AM,-13.0,-16.6,84,30.34,10.0,North,6.9,-,N/A,,Clear,10,2013-01-04 09:35:00
2:55 AM,-14.8,-16.6,92,30.34,10.0,NNE,6.9,-,N/A,,Clear,20,2013-01-04 09:55:00
3:15 AM,-13.0,-16.6,84,30.34,10.0,North,8.1,-,N/A,,Clear,360,2013-01-04 10:15:00
3:35 AM,-13.0,-14.8,92,30.34,10.0,NNE,4.6,-,N/A,,Clear,20,2013-01-04 10:35:00
4:15 AM,-13.0,-16.6,84,30.33,10.0,NNE,4.6,-,N/A,,Clear,20,2013-01-04 11:15:00
4:36 AM,-13.0,-16.6,84,30.33,10.0,NNE,8.1,-,N/A,,Clear,30,2013-01-04 11:36:00
4:55 AM,-13.0,-16.6,84,30.33,10.0,NNE,3.5,-,N/A,,Clear,20,2013-01-04 11:55:00
5:15 AM,-14.8,-16.6,92,30.33,10.0,Calm,Calm,-,N/A,,Clear,0,2013-01-04 12:15:00
5:35 AM,-14.8,-18.4,84,30.33,10.0,North,3.5,-,N/A,,Clear,360,2013-01-04 12:35:00
5:55 AM,-16.6,-20.2,84,30.33,10.0,North,4.6,-,N/A,,Clear,10,2013-01-04 12:55:00
6:15 AM,-16.6,-18.4,92,30.33,10.0,North,5.8,-,N/A,,Clear,10,2013-01-04 13:15:00
6:35 AM,-16.6,-20.2,84,30.33,10.0,North,6.9,-,N/A,,Clear,10,2013-01-04 13:35:00
6:51 AM,-16.6,-20.2,84,30.33,10.0,North,9.2,-,N/A,,Clear,10,2013-01-04 13:51:00
7:52 AM,-18.4,-22.0,84,30.34,10.0,North,10.4,-,N/A,,Clear,360,2013-01-04 14:52:00
8:52 AM,-14.8,-16.6,92,30.33,10.0,North,10.4,-,N/A,,Clear,10,2013-01-04 15:52:00
9:55 AM,-7.6,-11.2,84,30.34,10.0,NE,3.5,-,N/A,,Partly Cloudy,40,2013-01-04 16:55:00
10:54 AM,-4.0,-7.6,85,30.33,10.0,Calm,Calm,-,N/A,,Clear,0,2013-01-04 17:54:00
11:52 AM,-2.2,-4.0,92,30.30,10.0,Calm,Calm,-,N/A,,Clear,0,2013-01-04 18:52:00
1:06 PM,3.2,-2.2,78,30.26,10.0,Calm,Calm,-,N/A,,Clear,0,2013-01-04 20:06:00
1:54 PM,3.2,-0.4,85,30.25,10.0,Calm,Calm,-,N/A,,Clear,0,2013-01-04 20:54:00
2:51 PM,6.8,1.4,79,30.24,10.0,Calm,Calm,-,N/A,,Clear,0,2013-01-04 21:51:00
3:51 PM,6.8,1.4,79,30.24,10.0,SE,4.6,-,N/A,,Clear,130,2013-01-04 22:51:00
4:51 PM,3.2,-2.2,78,30.24,10.0,Calm,Calm,-,N/A,,Clear,0,2013-01-04 23:51:00
5:53 PM,-2.2,-5.8,85,30.25,10.0,North,3.5,-,N/A,,Clear,350,2013-01-05 00:53:00
6:51 PM,-5.8,-9.4,84,30.25,10.0,NNE,4.6,-,N/A,,Clear,20,2013-01-05 01:51:00
7:55 PM,-11.2,-13.0,92,30.25,10.0,North,10.4,-,N/A,,Clear,360,2013-01-05 02:55:00
8:51 PM,-7.6,-9.4,92,30.25,10.0,NNE,5.8,-,N/A,,Clear,30,2013-01-05 03:51:00
9:15 PM,-7.6,-11.2,84,30.26,10.0,NNE,4.6,-,N/A,,Clear,30,2013-01-05 04:15:00
9:35 PM,-7.6,-9.4,92,30.26,10.0,NNE,3.5,-,N/A,,Clear,20,2013-01-05 04:35:00
9:55 PM,-9.4,-13.0,84,30.26,10.0,North,5.8,-,N/A,,Clear,350,2013-01-05 04:55:00
10:15 PM,-9.4,-11.2,92,30.26,10.0,Calm,Calm,-,N/A,,Clear,0,2013-01-05 05:15:00
10:35 PM,-9.4,-13.0,84,30.26,10.0,NNE,3.5,-,N/A,,Clear,30,2013-01-05 05:35:00
10:55 PM,-11.2,-14.8,84,30.26,10.0,North,6.9,-,N/A,,Clear,10,2013-01-05 05:55:00
11:15 PM,-13.0,-14.8,92,30.25,10.0,NNE,5.8,-,N/A,,Clear,20,2013-01-05 06:15:00
11:35 PM,-11.2,-13.0,92,30.26,10.0,North,9.2,-,N/A,,Clear,10,2013-01-05 06:35:00
11:55 PM,-9.4,-11.2,92,30.27,10.0,North,4.6,-,N/A,,Clear,10,2013-01-05 06:55:00